VIR104L KATL-EGLL

Flight info

Callsign VIR104L
Flight time N/A
Altitude 37000
Route PLMMR3 BURGG DCT SBV DCT RIC DCT SIE DCT ACK DCT KANNI DCT JOOPY/M084F380 DCT 49N050W 51N040W 53N030W 54N020W DCT DOGAL DCT BEXET/N0473F390 DCT DEVOL DCT RINUS DCT LIFFY UL975 MALUD Q38 NUGRA
Aircraft A35K/H-SDE2E3GHIJ3J4J5LM1ORWXY/LB1D1

Departure

Time 2026-05-04 07:33
Airport Hartsfield Jackson Atlanta International Airport (KATL)

Arrival

Time N/A
Airport London Heathrow Airport (EGLL)
Time Latitude Longitude Altitude Speed Heading
2026-05-04 07:19 33.63942 -84.42641 1041 ft 0 kts 90°
2026-05-04 07:22 33.63962 -84.42735 1042 ft 4 kts 180°
2026-05-04 07:22 33.63987 -84.42735 1042 ft 2 kts 180°
2026-05-04 07:23 33.63989 -84.42735 1042 ft 0 kts 180°
2026-05-04 07:24 33.63987 -84.42735 1041 ft 1 kts 180°
2026-05-04 07:25 33.63971 -84.42735 1041 ft 4 kts 178°
2026-05-04 07:26 33.63658 -84.42650 1042 ft 10 kts 99°
2026-05-04 07:27 33.63653 -84.42558 1042 ft 12 kts 89°
2026-05-04 07:27 33.63654 -84.42449 1041 ft 14 kts 89°
2026-05-04 07:27 33.63656 -84.42321 1042 ft 16 kts 89°
2026-05-04 07:27 33.63656 -84.42215 1042 ft 17 kts 89°
2026-05-04 07:28 33.63655 -84.42079 1042 ft 18 kts 89°
2026-05-04 07:28 33.63657 -84.41920 1041 ft 20 kts 89°
2026-05-04 07:28 33.63658 -84.41751 1041 ft 21 kts 90°
2026-05-04 07:28 33.63657 -84.41565 1041 ft 23 kts 91°
2026-05-04 07:29 33.63655 -84.41373 1041 ft 24 kts 89°
2026-05-04 07:29 33.63657 -84.41170 1041 ft 25 kts 89°
2026-05-04 07:29 33.63617 -84.41056 1041 ft 9 kts 159°
2026-05-04 07:29 33.63560 -84.41039 1041 ft 9 kts 181°
2026-05-04 07:30 33.63504 -84.41069 1041 ft 10 kts 218°
2026-05-04 07:30 33.63476 -84.41144 1040 ft 11 kts 262°
2026-05-04 07:30 33.63472 -84.41201 1040 ft 0 kts 268°
2026-05-04 07:31 33.63471 -84.41233 1040 ft 20 kts 268°
2026-05-04 07:31 33.63470 -84.41748 1040 ft 106 kts 270°
2026-05-04 07:33 33.61223 -84.52650 6128 ft 234 kts 244°
2026-05-04 07:33 33.60476 -84.54443 6529 ft 251 kts 245°
2026-05-04 07:33 33.59641 -84.56341 7092 ft 262 kts 239°
2026-05-04 07:33 33.58323 -84.57887 7719 ft 273 kts 211°
2026-05-04 07:34 33.56483 -84.58530 8376 ft 282 kts 183°
2026-05-04 07:34 33.54491 -84.58526 9100 ft 289 kts 179°
2026-05-04 07:34 33.52465 -84.58487 9864 ft 294 kts 180°
2026-05-04 07:34 33.50396 -84.58465 10566 ft 299 kts 179°
2026-05-04 07:35 33.48329 -84.58065 11266 ft 303 kts 159°
2026-05-04 07:35 33.46561 -84.56715 11976 ft 305 kts 133°
2026-05-04 07:35 33.45396 -84.54557 12368 ft 319 kts 107°
2026-05-04 07:35 33.45150 -84.51878 12682 ft 332 kts 80°
2026-05-04 07:36 33.45536 -84.49106 13023 ft 348 kts 83°
2026-05-04 07:36 33.45639 -84.46132 13403 ft 365 kts 88°
2026-05-04 07:38 33.50400 -84.27677 17168 ft 394 kts 43°
2026-05-04 07:38 33.53697 -84.23712 18200 ft 403 kts 42°
2026-05-04 07:38 33.55667 -84.21332 18772 ft 408 kts 42°
2026-05-04 07:38 33.57697 -84.18868 19327 ft 413 kts 42°
2026-05-04 07:39 33.59726 -84.16398 19918 ft 417 kts 42°
2026-05-04 07:39 33.61740 -84.13941 20495 ft 421 kts 42°
2026-05-04 07:39 33.63801 -84.11425 21100 ft 425 kts 42°
2026-05-04 07:39 33.65912 -84.08843 21723 ft 429 kts 41°
2026-05-04 07:40 33.66588 -84.08016 21918 ft 430 kts 41°
2026-05-04 07:40 33.70103 -84.03713 22897 ft 438 kts 41°
2026-05-04 07:40 33.72243 -84.01090 23483 ft 442 kts 41°
2026-05-04 07:40 33.74406 -83.98437 23991 ft 446 kts 41°
2026-05-04 07:41 33.76582 -83.95766 24497 ft 450 kts 41°
2026-05-04 07:41 33.78778 -83.93067 24984 ft 453 kts 41°
2026-05-04 07:41 33.80986 -83.90351 25523 ft 456 kts 41°
2026-05-04 07:41 33.83216 -83.87608 26007 ft 460 kts 40°
2026-05-04 07:42 33.85457 -83.84848 26505 ft 463 kts 40°
2026-05-04 07:42 33.87718 -83.82062 26994 ft 467 kts 40°
2026-05-04 07:42 33.90000 -83.79246 27487 ft 470 kts 40°
2026-05-04 07:42 33.92288 -83.76422 27975 ft 473 kts 40°
2026-05-04 07:43 33.94572 -83.73566 28441 ft 478 kts 42°
2026-05-04 07:43 33.96725 -83.70453 28898 ft 484 kts 46°
2026-05-04 07:43 33.98783 -83.67221 29344 ft 489 kts 48°
2026-05-04 07:43 34.00811 -83.63917 29785 ft 493 kts 49°
2026-05-04 07:44 34.02837 -83.60567 30201 ft 496 kts 49°
2026-05-04 07:44 34.04865 -83.57204 30571 ft 499 kts 49°
2026-05-04 07:44 34.06916 -83.53814 30892 ft 502 kts 48°
2026-05-04 07:44 34.08686 -83.50901 31208 ft 504 kts 48°